This demonstration page uses our WeatherBlox Daily Observations layout. Learn more.

38.89511, -77.03637

Hourly Observations for February 28, 2020

Temp ( °F °C ) Dew Point ( °F °C ) Humidity (%) Winds ( mph kmh ) Pressure ( in mb ) Visibility ( mi km ) Precip ( " mm )
12:52 am 00:52 Mostly Clear 32 0 14 -10 47 47 SSW 8 13 30 1016 10 16.0934 0 0
1:52 am 01:52 Mostly Clear 32 0 15 -9.4 50 50 SSW 10 17 29.99 1016 10 16.0934 0 0
2:52 am 02:52 Partly Cloudy 31 -0.6 15 -9.4 52 52 SW 8 13 29.97 1015 10 16.0934 0 0
3:52 am 03:52 Mostly Cloudy 31 -0.6 16 -8.9 54 54 SSW 8 13 29.96 1014 10 16.0934 0 0
4:52 am 04:52 Cloudy 32 0 16 -8.9 52 52 SSW 12 19 29.96 1015 10 16.0934 0 0
5:52 am 05:52 Cloudy 33 0.6 16 -8.9 49 49 SSW 13 20 29.96 1015 10 16.0934 0 0
6:52 am 06:52 Mostly Cloudy 33 0.6 16 -8.9 49 49 SSW 13 20 29.97 1015 10 16.0934 0 0
7:52 am 07:52 Cloudy 34 1.1 18 -7.8 52 52 SW 9 15 29.96 1015 10 16.0934 0 0
8:52 am 08:52 Mostly Cloudy 36 2.2 18 -7.8 48 48 SW 12 19 29.96 1015 10 16.0934 0 0
9:52 am 09:52 Mostly Cloudy 39 3.9 19 -7.2 45 45 SW 12 19 29.94 1014 10 16.0934 0 0
10:52 am 10:52 Mostly Cloudy 44 6.7 21 -6.1 40 40 SW 12 19 29.92 1013 10 16.0934 0 0
11:52 am 11:52 Mostly Cloudy 44 6.7 21 -6.1 40 40 SW 10 17 29.91 1013 10 16.0934 0 0
12:52 pm 12:52 Mostly Cloudy 47 8.3 24 -4.4 41 41 W 12 19 29.89 1012 10 16.0934 0 0
1:52 pm 13:52 Mostly Cloudy 45 7.2 24 -4.4 44 44 SW 16 26 29.87 1011 10 16.0934 0 0
2:01 pm 14:01 Mostly Cloudy 45 7.2 24 -4.4 44 44 WSW 13 20 29.87 1012 10 16.0934 0 0
2:52 pm 14:52 Mostly Cloudy 48 8.9 24 -4.4 39 39 W 7 11 29.85 1011 10 16.0934 0 0
3:52 pm 15:52 Partly Cloudy 47 8.3 25 -3.9 42 42 SW 12 19 29.85 1011 10 16.0934 0 0
4:08 pm 16:08 Partly Cloudy 46 7.8 25 -3.9 44 44 SW 12 19 29.84 1011 10 16.0934 0 0
4:52 pm 16:52 Mostly Cloudy 45 7.2 24 -4.4 44 44 WSW 10 17 29.84 1011 10 16.0934 0 0
5:52 pm 17:52 Mostly Cloudy 44 6.7 25 -3.9 47 47 WSW 9 15 29.86 1011 10 16.0934 0.001 0.001
6:52 pm 18:52 Cloudy 45 7.2 22 -5.6 40 40 WNW 13 20 29.88 1012 10 16.0934 0 0
7:52 pm 19:52 Cloudy 44 6.7 19 -7.2 37 37 WNW 15 24 29.9 1013 10 16.0934 0 0
8:52 pm 20:52 Mostly Cloudy 42 5.6 18 -7.8 38 38 WNW 14 22 29.92 1013 10 16.0934 0 0
9:52 pm 21:52 Mostly Cloudy 40 4.4 17 -8.3 40 40 WNW 13 20 29.93 1014 10 16.0934 0 0
10:52 pm 22:52 Partly Cloudy 38 3.3 17 -8.3 43 43 WNW 14 22 29.95 1014 10 16.0934 0 0
11:52 pm 23:52 Partly Cloudy 37 2.8 16 -8.9 42 42 WNW 14 22 29.94 1014 10 16.0934 0 0

Powered by AerisWeather